Location: Ravensburg
(47.7866°N, 9.6124°E)
Time: 09:56:40
(UTC+02:00)

YUBILEINY - Pass Details

Date: 15 March 2026
Orbit: 1477 x 1509 km, 82.5° (Epoch: 17 April)

Event Time Altitude Azimuth Distance (km) Brightness Sun altitude
Rises 18:59:11 0° 244° (WSW) 4,635 ? -6.3°
Reaches altitude 10° 19:03:11 10° 260° (W) 3,654 ? -6.9°
Maximum altitude 19:09:17 20° 305° (NW) 2,927 ? -7.9°
Drops below altitude 10° 19:15:24 10° 350° (N) 3,648 ? -9.0°
Sets 19:19:26 0° 7° (N) 4,626 ? -9.6°
